This demonstration page uses our WeatherBlox Daily Observations layout. Learn more.

Left ArrowRight Arrow

Hourly Observations for January 18, 2016

Temp ( °F °C ) Dew Point ( °F °C ) Humidity (%) Winds ( mph kmh ) Pressure ( in mb ) Visibility ( mi km ) Precip ( " mm )
12:54 am 00:54 Clear -1 -18.3 -7 -21.7 75 75 Calm 30.49 1032 10 16 0.00 0.00
1:54 am 01:54 Clear -2 -18.9 -7 -21.7 79 79 Calm 30.47 1032 10 16 0.00 0.00
2:54 am 02:54 Clear -4 -20 -8 -22.2 83 83 Calm 30.48 1032 10 16 0.00 0.00
3:54 am 03:54 Clear -5 -20.6 -9 -22.8 83 83 S 3 6 30.47 1032 10 16 0.00 0.00
4:54 am 04:54 Clear -4 -20 -9 -22.8 79 79 Calm 30.46 1032 10 16 0.00 0.00
5:54 am 05:54 Clear -6 -21.1 -11 -23.9 78 78 Calm 30.46 1032 10 16 0.00 0.00
6:54 am 06:54 Clear -7 -21.7 -13 -25 75 75 Calm 30.48 1032 10 16 0.00 0.00
7:54 am 07:54 Sunny -5 -20.6 -10 -23.3 79 79 Calm 30.47 1032 10 16 0.00 0.00
8:54 am 08:54 Sunny -2 -18.9 -7 -21.7 79 79 SSE 5 7 30.48 1032 10 16 0.00 0.00
9:54 am 09:54 Sunny 2 -16.7 -2 -18.9 83 83 Calm 30.48 1032 10 16 0.00 0.00
10:54 am 10:54 Sunny 8 -13.3 2 -16.7 76 76 Calm 30.47 1032 10 16 0.00 0.00
11:54 am 11:54 Cloudy 14 -10 3 -16.1 61 61 SSE 7 11 30.43 1031 10 16 0.00 0.00
12:54 pm 12:54 Cloudy 16 -8.9 5 -15 62 62 SSE 7 11 30.40 1029 10 16 0.00 0.00
1:54 pm 13:54 Partly Cloudy 19 -7.2 8 -13.3 62 62 SSE 8 13 30.36 1028 10 16 0.00 0.00
2:54 pm 14:54 Sunny 21 -6.1 11 -11.7 65 65 S 10 17 30.35 1028 10 16 0.00 0.00
3:54 pm 15:54 Sunny 22 -5.6 11 -11.7 63 63 S 7 11 30.32 1027 10 16 0.00 0.00
4:54 pm 16:54 Sunny 20 -6.7 10 -12.2 65 65 ESE 9 15 30.31 1027 10 16 0.00 0.00
5:54 pm 17:54 Clear 16 -8.9 7 -13.9 67 67 ESE 9 15 30.33 1027 10 16 0.00 0.00
6:54 pm 18:54 Clear 15 -9.4 7 -13.9 70 70 ESE 8 13 30.35 1028 10 16 0.00 0.00
7:54 pm 19:54 Clear 15 -9.4 7 -13.9 70 70 SE 8 13 30.34 1027 10 16 0.00 0.00
8:54 pm 20:54 Cloudy 16 -8.9 8 -13.3 71 71 ESE 7 11 30.33 1027 10 16 0.00 0.00
9:54 pm 21:54 Cloudy 18 -7.8 9 -12.8 68 68 ESE 9 15 30.33 1027 10 16 0.00 0.00
10:54 pm 22:54 Cloudy 19 -7.2 10 -12.2 68 68 ESE 8 13 30.33 1027 10 16 0.00 0.00
11:54 pm 23:54 Cloudy 19 -7.2 11 -11.7 71 71 ESE 5 7 30.35 1028 10 16 0.00 0.00

Powered by AerisWeather